EA3KZ-1 Weather Reports


Display with metric or nautical units.
time (UTC)temp
F
wind
direction
speed
MPH
gust
MPH
rain 1hr
in
rain 24hr
in
rain mn
in
humidity
%
barometer
mb
20260506101541 62 130 3.0 8.0 0.00 0.33 0.00 58 1007.6
20260506100539 61 114 3.0 7.0 0.00 0.33 0.00 58 1007.6
20260506095531 61 141 3.0 6.0 0.00 0.33 0.00 59 1007.9
20260506094529 60 135 2.0 4.0 0.00 0.33 0.00 61 1007.9
20260506093520 59 176 4.0 8.0 0.00 0.33 0.00 61 1007.9
20260506092517 59 215 3.0 6.0 0.00 0.33 0.00 61 1008.0
20260506091515 59 174 3.0 9.0 0.00 0.33 0.00 60 1007.8
20260506090606 59 179 4.0 8.0 0.00 0.33 0.00 61 1007.7
20260506085604 59 208 4.0 9.0 0.00 0.33 0.00 61 1007.7
20260506084555 59 206 3.0 8.0 0.00 0.33 0.00 60 1007.8
20260506083553 58 213 4.0 7.0 0.00 0.33 0.00 60 1007.6
20260506082544 58 146 0.0 4.0 0.00 0.33 0.00 64 1007.6
20260506081541 57 214 3.0 7.0 0.00 0.33 0.00 64 1007.5
20260506080539 56 229 5.0 11.0 0.00 0.33 0.00 64 1007.5
20260506073520 54 230 4.0 9.0 0.00 0.33 0.00 70 1007.3
20260506072517 54 217 4.0 8.0 0.00 0.33 0.00 72 1007.2
20260506071515 53 228 6.0 11.0 0.00 0.33 0.00 74 1007.2
20260506070607 53 214 7.0 14.0 0.00 0.33 0.00 74 1007.2
20260506061542 52 242 4.0 7.0 0.00 0.33 0.00 76 1007.2
20260506060540 52 227 3.0 4.0 0.00 0.33 0.00 77 1007.1
20260506050607 50 248 1.0 6.0 0.00 0.33 0.00 80 1006.6
20260506044556 50 244 2.0 4.0 0.00 0.33 0.00 81 1006.5
20260506043554 49 243 2.0 4.0 0.00 0.33 0.00 82 1006.5
20260506042551 49 218 2.0 4.0 0.00 0.33 0.00 82 1006.5
20260506041542 50 0.0 2.0 0.00 0.33 0.00 81 1006.3
20260506040540 50 206 1.0 4.0 0.00 0.33 0.00 80 1006.3
20260506035531 51 248 1.0 4.0 0.00 0.33 0.00 78 1006.2
20260506034529 50 253 2.0 4.0 0.00 0.33 0.00 80 1006.1
20260506033520 51 274 2.0 4.0 0.00 0.33 0.00 80 1006.2
20260506032517 51 0.0 0.0 0.00 0.33 0.00 80 1006.2
20260506031515 51 263 2.0 4.0 0.00 0.33 0.00 79 1006.2
20260506030607 52 290 1.0 4.0 0.00 0.33 0.00 77 1006.3
20260506025605 53 292 4.0 7.0 0.00 0.33 0.00 75 1006.2
20260506024556 53 258 3.0 6.0 0.00 0.33 0.00 75 1006.2
20260506023554 53 260 3.0 7.0 0.00 0.33 0.00 74 1006.3
20260506022551 53 267 2.0 4.0 0.00 0.33 0.00 77 1006.1
20260506021543 52 293 0.0 2.0 0.00 0.33 0.00 77 1006.1
20260506020541 53 339 1.0 4.0 0.00 0.33 0.00 76 1006.0
20260506015532 52 315 2.0 4.0 0.00 0.33 0.00 77 1005.8
20260506014530 53 309 2.0 6.0 0.00 0.33 0.00 76 1005.9
20260506013527 52 0.0 2.0 0.00 0.33 0.00 79 1005.9
20260506012519 52 135 0.0 2.0 0.00 0.33 0.00 80 1006.0
20260506011516 53 113 1.0 2.0 0.00 0.33 0.00 79 1006.0
20260506010608 52 113 0.0 2.0 0.00 0.33 0.00 79 1006.0
20260506005606 52 127 1.0 6.0 0.00 0.33 0.00 82 1006.1
20260506004604 51 0.0 0.0 0.00 0.33 0.00 85 1006.1
20260506003555 51 211 1.0 2.0 0.00 0.33 0.00 85 1006.3
20260506002552 52 180 1.0 2.0 0.00 0.33 0.00 84 1006.2
20260506001544 53 105 1.0 4.0 0.00 0.33 0.00 85 1006.4
20260506000542 53 0.0 0.0 0.00 0.33 0.00 81 1006.3
20260505235539 53 283 1.0 2.0 0.00 0.33 0.33 82 1006.3
20260505234531 53 262 1.0 4.0 0.00 0.33 0.33 84 1006.4
20260505233528 52 302 1.0 2.0 0.00 0.33 0.33 87 1006.4
20260505232520 52 0 0.0 2.0 0.00 0.33 0.33 88 1006.5
20260505231518 52 230 1.0 2.0 0.00 0.33 0.33 88 1006.3
20260505230515 53 248 0.0 2.0 0.00 0.33 0.33 86 1006.3
20260505225607 53 297 1.0 2.0 0.00 0.33 0.33 85 1006.1
20260505224604 53 230 1.0 2.0 0.00 0.33 0.33 84 1006.5
20260505223557 54 208 1.0 2.0 0.00 0.33 0.33 81 1006.7
20260505222554 55 231 1.0 2.0 0.00 0.33 0.33 80 1006.8
20260505221551 54 267 2.0 4.0 0.00 0.33 0.33 82 1006.8
20260505220543 54 236 2.0 2.0 0.00 0.33 0.33 81 1007.2
20260505215540 54 229 3.0 4.0 0.00 0.33 0.33 80 1007.1
20260505214533 54 225 1.0 4.0 0.00 0.33 0.33 80 1007.1
20260505213530 54 228 1.0 4.0 0.00 0.33 0.33 82 1007.2
20260505212527 53 234 3.0 6.0 0.00 0.33 0.33 84 1007.2
20260505211519 53 233 3.0 4.0 0.00 0.33 0.33 85 1007.2
20260505210516 53 189 2.0 4.0 0.00 0.33 0.33 83 1006.9
20260505205608 54 233 4.0 7.0 0.00 0.33 0.33 83 1006.9
20260505204605 54 229 3.0 4.0 0.00 0.33 0.33 82 1006.7
20260505203603 54 248 2.0 4.0 0.00 0.33 0.33 83 1006.8
20260505203036 54 236 2.0 4.0 0.00 0.33 0.33 83 1006.7
20260505202034 53 234 2.0 4.0 0.00 0.35 0.33 85 1006.6
20260505201031 53 190 1.0 4.0 0.00 0.39 0.33 85 1006.5
20260505200029 54 244 1.0 2.0 0.00 0.39 0.33 84 1006.2
20260505195026 54 224 1.0 2.0 0.00 0.39 0.33 83 1005.9
20260505194023 54 0.0 0.0 0.00 0.40 0.33 82 1005.7
20260505193021 55 243 1.0 2.0 0.00 0.40 0.33 79 1005.6
20260505192018 55 295 3.0 6.0 0.00 0.40 0.33 79 1005.6
20260505191016 55 255 4.0 8.0 0.00 0.40 0.33 81 1005.6
20260505190113 55 248 3.0 4.0 0.00 0.40 0.33 81 1005.8
20260505185110 54 261 2.0 4.0 0.00 0.40 0.33 83 1005.7
20260505184107 54 241 2.0 4.0 0.00 0.40 0.33 84 1005.6
20260505183104 54 237 3.0 6.0 0.00 0.40 0.33 84 1005.6
20260505182101 53 248 3.0 4.0 0.00 0.40 0.33 87 1005.6
20260505181059 53 238 2.0 4.0 0.01 0.40 0.33 90 1005.6
20260505180056 53 231 2.0 4.0 0.01 0.40 0.33 91 1005.5
20260505175054 53 235 0.0 2.0 0.01 0.40 0.33 92 1005.5
20260505174051 53 223 1.0 2.0 0.02 0.40 0.33 91 1005.7
20260505173048 53 205 1.0 4.0 0.02 0.40 0.33 90 1005.6
20260505172046 53 237 6.0 11.0 0.04 0.40 0.33 90 1005.5
20260505171043 53 330 3.0 6.0 0.04 0.39 0.32 91 1005.7
20260505170041 52 348 2.0 4.0 0.05 0.39 0.32 91 1005.9
20260505165038 52 248 1.0 4.0 0.30 0.39 0.32 91 1006.1
20260505164036 51 259 3.0 6.0 0.31 0.38 0.31 89 1006.1
20260505163033 50 293 3.0 7.0 0.31 0.38 0.31 89 1006.0
20260505162030 49 290 5.0 7.0 0.30 0.37 0.30 87 1006.1
20260505161028 50 319 1.0 4.0 0.28 0.35 0.28 88 1006.1
20260505153017 63 29 4.0 11.0 0.00 0.07 0.00 64 1005.0
20260505152014 64 30 3.0 11.0 0.00 0.07 0.00 66 1005.2
20260505151112 64 103 3.0 9.0 0.00 0.07 0.00 66 1005.1
20260505150109 65 125 3.0 8.0 0.00 0.07 0.00 66 1005.0
20260505125036 67 354 2.0 8.0 0.00 0.08 0.00 60 1006.1
20260505124033 67 22 3.0 11.0 0.00 0.08 0.00 62 1006.0
20260505123030 67 114 3.0 6.0 0.00 0.08 0.00 61 1006.3
20260505122027 65 27 4.0 9.0 0.00 0.08 0.00 65 1006.3
20260505121024 67 68 1.0 6.0 0.00 0.08 0.00 62 1006.4
20260505120022 66 107 2.0 4.0 0.00 0.08 0.00 64 1006.3
20260505115019 66 136 2.0 4.0 0.00 0.08 0.00 66 1006.5
20260505114016 67 76 2.0 8.0 0.00 0.08 0.00 60 1006.6
20260505113114 64 25 3.0 7.0 0.00 0.08 0.00 64 1006.7
20260505112112 63 17 1.0 4.0 0.00 0.08 0.00 68 1006.8
20260505111109 64 9 2.0 6.0 0.00 0.08 0.00 69 1007.0
20260505110106 64 135 0.0 2.0 0.00 0.08 0.00 69 1007.1
20260505102056 61 81 3.0 9.0 0.00 0.08 0.00 76 1007.2